Time,TemperatureF,DewpointF,PressureIn,WindDirection,WindDirectionDegrees,WindSpeedMPH,WindSpeedGustMPH,Humidity,HourlyPrecipIn,Conditions,Clouds,dailyrainin,SoftwareType,DateUTC
2013-11-06 00:13:00,43.0,40.0,30.50,NW,318,0.0,0.0,90,0.00,,,0.00,,2013-11-06 05:13:00,
2013-11-06 00:23:00,43.0,41.0,30.49,NW,318,0.0,0.0,91,0.00,,,0.00,,2013-11-06 05:23:00,
2013-11-06 00:44:00,43.0,41.0,30.49,NW,318,0.0,0.0,91,0.00,,,0.00,,2013-11-06 05:44:00,
2013-11-06 00:53:00,43.0,41.0,30.50,NW,318,0.0,0.0,92,0.00,,,0.00,,2013-11-06 05:53:00,
2013-11-06 01:13:00,43.0,41.0,30.49,NW,318,0.0,0.0,92,0.00,,,0.00,,2013-11-06 06:13:00,
2013-11-06 01:22:00,42.0,40.0,30.49,NW,318,0.0,0.0,92,0.00,,,0.00,,2013-11-06 06:22:00,
2013-11-06 01:42:00,42.0,40.0,30.48,NW,318,0.0,0.0,92,0.00,,,0.00,,2013-11-06 06:42:00,
2013-11-06 01:52:00,41.0,39.0,30.47,NW,318,0.0,0.0,93,0.00,,,0.00,,2013-11-06 06:52:00,
2013-11-06 02:12:00,41.0,39.0,30.47,NW,318,0.0,0.0,94,0.00,,,0.00,,2013-11-06 07:12:00,
2013-11-06 02:22:00,40.0,38.0,30.47,NW,318,0.0,0.0,94,0.00,,,0.00,,2013-11-06 07:22:00,
2013-11-06 02:42:00,40.0,39.0,30.47,NW,318,0.0,0.0,96,0.00,,,0.00,,2013-11-06 07:42:00,
2013-11-06 02:52:00,40.0,39.0,30.47,NW,318,0.0,0.0,96,0.00,,,0.00,,2013-11-06 07:52:00,
2013-11-06 03:12:00,41.0,40.0,30.45,NW,318,0.0,0.0,96,0.00,,,0.00,,2013-11-06 08:12:00,
2013-11-06 03:22:00,41.0,40.0,30.45,NW,318,0.0,0.0,96,0.00,,,0.00,,2013-11-06 08:22:00,
2013-11-06 03:42:00,41.0,40.0,30.45,NW,318,0.0,0.0,96,0.00,,,0.00,,2013-11-06 08:42:00,
2013-11-06 03:52:00,41.0,40.0,30.44,NW,318,0.0,0.0,96,0.00,,,0.00,,2013-11-06 08:52:00,
2013-11-06 04:12:00,41.0,40.0,30.44,NW,318,0.0,0.0,96,0.00,,,0.00,,2013-11-06 09:12:00,
2013-11-06 04:22:00,41.0,40.0,30.44,NW,318,0.0,0.0,96,0.00,,,0.00,,2013-11-06 09:22:00,
2013-11-06 04:43:00,41.0,40.0,30.44,NW,318,0.0,0.0,96,0.00,,,0.00,,2013-11-06 09:43:00,
2013-11-06 04:53:00,42.0,41.0,30.44,NW,318,0.0,0.0,96,0.00,,,0.00,,2013-11-06 09:53:00,
2013-11-06 05:12:00,42.0,41.0,30.43,NW,318,0.0,0.0,96,0.00,,,0.00,,2013-11-06 10:12:00,
2013-11-06 05:23:00,42.0,41.0,30.43,NW,318,0.0,0.0,96,0.00,,,0.00,,2013-11-06 10:23:00,
2013-11-06 05:42:00,42.0,41.0,30.43,NW,318,0.0,0.0,95,0.00,,,0.00,,2013-11-06 10:42:00,
2013-11-06 05:52:00,42.0,41.0,30.43,NW,318,0.0,0.0,95,0.00,,,0.00,,2013-11-06 10:52:00,
2013-11-06 06:12:00,42.0,41.0,30.43,NW,318,0.0,0.0,95,0.00,,,0.00,,2013-11-06 11:12:00,
2013-11-06 06:22:00,42.0,41.0,30.42,NW,318,0.0,0.0,95,0.00,,,0.00,,2013-11-06 11:22:00,
2013-11-06 06:42:00,42.0,41.0,30.42,NW,318,0.0,0.0,95,0.00,,,0.00,,2013-11-06 11:42:00,
2013-11-06 06:52:00,42.0,41.0,30.41,NW,318,0.0,0.0,95,0.00,,,0.00,,2013-11-06 11:52:00,
2013-11-06 07:12:00,41.0,40.0,30.41,NW,318,0.0,0.0,95,0.00,,,0.00,,2013-11-06 12:12:00,
2013-11-06 07:22:00,41.0,40.0,30.42,NW,318,0.0,0.0,96,0.00,,,0.00,,2013-11-06 12:22:00,
2013-11-06 07:42:00,41.0,40.0,30.42,NW,318,0.0,0.0,97,0.00,,,0.00,,2013-11-06 12:42:00,
2013-11-06 07:52:00,42.0,41.0,30.40,NW,318,0.0,0.0,97,0.00,,,0.00,,2013-11-06 12:52:00,
2013-11-06 08:12:00,43.0,42.0,30.41,NW,318,0.0,0.0,97,0.00,,,0.00,,2013-11-06 13:12:00,
2013-11-06 08:22:00,44.0,43.0,30.41,NW,318,0.0,0.0,96,0.00,,,0.00,,2013-11-06 13:22:00,
2013-11-06 08:42:00,45.0,44.0,30.41,NW,318,0.0,0.0,95,0.00,,,0.00,,2013-11-06 13:42:00,
2013-11-06 08:52:00,45.0,43.0,30.40,NW,318,0.0,0.0,94,0.00,,,0.00,,2013-11-06 13:52:00,
2013-11-06 09:12:00,47.0,45.0,30.40,NW,318,0.0,0.0,92,0.00,,,0.00,,2013-11-06 14:12:00,
2013-11-06 09:22:00,48.0,45.0,30.39,NW,318,0.0,0.0,88,0.00,,,0.00,,2013-11-06 14:22:00,
2013-11-06 09:42:00,49.0,45.0,30.38,NW,318,0.0,0.0,85,0.00,,,0.00,,2013-11-06 14:42:00,
2013-11-06 09:52:00,50.0,45.0,30.38,NW,318,0.0,0.0,82,0.00,,,0.00,,2013-11-06 14:52:00,
2013-11-06 10:11:00,52.0,45.0,30.37,SSW,203,0.0,0.0,78,0.00,,,0.00,,2013-11-06 15:11:00,
2013-11-06 10:22:00,53.0,46.0,30.37,SSW,203,0.0,0.0,77,0.00,,,0.00,,2013-11-06 15:22:00,
2013-11-06 10:43:00,53.0,45.0,30.39,SSW,203,0.0,0.0,73,0.00,,,0.00,,2013-11-06 15:43:00,
2013-11-06 10:53:00,53.0,44.0,30.38,SSW,203,0.0,0.0,71,0.00,,,0.00,,2013-11-06 15:53:00,
2013-11-06 11:12:00,55.0,45.0,30.36,SSW,203,0.0,0.0,68,0.00,,,0.00,,2013-11-06 16:12:00,
2013-11-06 11:23:00,56.0,45.0,30.36,SSW,203,0.0,0.0,66,0.00,,,0.00,,2013-11-06 16:23:00,
2013-11-06 11:42:00,56.0,44.0,30.35,SSW,203,0.0,0.0,63,0.00,,,0.00,,2013-11-06 16:42:00,
2013-11-06 11:53:00,57.0,45.0,30.34,SSW,203,0.0,0.0,64,0.00,,,0.00,,2013-11-06 16:53:00,
2013-11-06 12:13:00,57.0,44.0,30.33,SSW,203,0.0,0.0,62,0.00,,,0.00,,2013-11-06 17:13:00,
2013-11-06 12:23:00,57.0,44.0,30.32,SSW,203,0.0,0.0,62,0.00,,,0.00,,2013-11-06 17:23:00,
2013-11-06 12:43:00,57.0,43.0,30.30,SSW,203,0.0,0.0,60,0.00,,,0.00,,2013-11-06 17:43:00,
2013-11-06 12:52:00,57.0,44.0,30.30,WSW,257,0.0,0.0,61,0.00,,,0.00,,2013-11-06 17:52:00,
2013-11-06 13:12:00,57.0,44.0,30.29,WSW,257,0.0,0.0,61,0.00,,,0.00,,2013-11-06 18:12:00,
2013-11-06 13:22:00,57.0,44.0,30.28,WSW,257,0.0,0.0,61,0.00,,,0.00,,2013-11-06 18:22:00,
2013-11-06 13:42:00,59.0,45.0,30.27,WSW,257,0.0,0.0,59,0.00,,,0.00,,2013-11-06 18:42:00,
2013-11-06 13:52:00,59.0,44.0,30.27,WSW,257,0.0,0.0,58,0.00,,,0.00,,2013-11-06 18:52:00,
2013-11-06 14:22:00,59.0,44.0,30.26,WSW,257,0.0,0.0,57,0.00,,,0.00,,2013-11-06 19:22:00,
2013-11-06 14:42:00,59.0,45.0,30.25,WSW,257,0.0,0.0,59,0.00,,,0.00,,2013-11-06 19:42:00,
2013-11-06 14:52:00,59.0,45.0,30.25,WSW,257,0.0,0.0,60,0.00,,,0.00,,2013-11-06 19:52:00,
2013-11-06 15:22:00,59.0,45.0,30.24,WSW,257,0.0,0.0,59,0.00,,,0.00,,2013-11-06 20:22:00,
2013-11-06 15:42:00,59.0,45.0,30.24,WSW,257,0.0,0.0,59,0.00,,,0.00,,2013-11-06 20:42:00,
2013-11-06 15:52:00,59.0,45.0,30.23,WSW,257,0.0,0.0,60,0.00,,,0.00,,2013-11-06 20:52:00,
2013-11-06 16:12:00,59.0,46.0,30.23,WSW,257,0.0,0.0,62,0.00,,,0.00,,2013-11-06 21:12:00,
2013-11-06 16:22:00,58.0,45.0,30.23,WSW,257,0.0,0.0,63,0.00,,,0.00,,2013-11-06 21:22:00,
2013-11-06 16:44:00,58.0,46.0,30.22,WSW,257,0.0,0.0,64,0.00,,,0.00,,2013-11-06 21:44:00,
2013-11-06 16:54:00,57.0,45.0,30.21,WSW,257,0.0,0.0,65,0.00,,,0.00,,2013-11-06 21:54:00,
2013-11-06 17:14:00,57.0,46.0,30.20,WSW,257,0.0,0.0,67,0.00,,,0.00,,2013-11-06 22:14:00,
2013-11-06 17:24:00,57.0,46.0,30.20,WSW,257,0.0,0.0,67,0.00,,,0.00,,2013-11-06 22:24:00,
2013-11-06 17:43:00,56.0,46.0,30.19,WSW,257,0.0,0.0,68,0.00,,,0.00,,2013-11-06 22:43:00,
2013-11-06 17:53:00,56.0,46.0,30.19,WSW,257,0.0,0.0,69,0.00,,,0.00,,2013-11-06 22:53:00,
2013-11-06 18:22:00,56.0,46.0,30.18,WSW,257,0.0,0.0,70,0.00,,,0.00,,2013-11-06 23:22:00,
2013-11-06 18:42:00,56.0,47.0,30.18,WSW,257,0.0,0.0,71,0.00,,,0.00,,2013-11-06 23:42:00,
2013-11-06 18:53:00,56.0,47.0,30.18,WSW,257,0.0,0.0,72,0.00,,,0.00,,2013-11-06 23:53:00,
2013-11-06 19:12:00,55.0,47.0,30.17,WSW,257,0.0,0.0,74,0.00,,,0.00,,2013-11-07 00:12:00,
2013-11-06 19:22:00,55.0,47.0,30.17,WSW,257,0.0,0.0,75,0.00,,,0.00,,2013-11-07 00:22:00,
2013-11-06 19:42:00,54.0,47.0,30.16,WSW,257,0.0,0.0,77,0.00,,,0.00,,2013-11-07 00:42:00,
2013-11-06 19:52:00,54.0,47.0,30.16,WSW,257,0.0,0.0,78,0.00,,,0.00,,2013-11-07 00:52:00,
2013-11-06 20:22:00,52.0,47.0,30.15,WSW,257,0.0,0.0,82,0.00,,,0.00,,2013-11-07 01:22:00,
2013-11-06 20:42:00,54.0,48.0,30.14,WSW,257,0.0,0.0,80,0.00,,,0.00,,2013-11-07 01:42:00,
2013-11-06 20:52:00,54.0,48.0,30.14,WSW,257,0.0,0.0,79,0.00,,,0.00,,2013-11-07 01:52:00,
2013-11-06 21:12:00,54.0,48.0,30.14,WSW,257,0.0,0.0,80,0.00,,,0.00,,2013-11-07 02:12:00,
2013-11-06 21:22:00,53.0,47.0,30.14,WSW,257,0.0,0.0,81,0.00,,,0.00,,2013-11-07 02:22:00,
2013-11-06 22:22:00,55.0,49.0,30.11,WSW,257,0.0,0.0,80,0.00,,,0.00,,2013-11-07 03:22:00,
2013-11-06 22:44:00,55.0,50.0,30.11,WSW,257,0.0,0.0,82,0.00,,,0.00,,2013-11-07 03:44:00,
2013-11-06 22:55:00,55.0,50.0,30.10,WSW,257,0.0,0.0,82,0.00,,,0.00,,2013-11-07 03:55:00,
2013-11-06 23:13:00,54.0,49.0,30.09,WSW,257,0.0,0.0,83,0.00,,,0.00,,2013-11-07 04:13:00,
2013-11-06 23:24:00,54.0,49.0,30.09,WSW,257,0.0,0.0,84,0.00,,,0.00,,2013-11-07 04:24:00,
2013-11-06 23:43:00,54.0,50.0,30.08,WSW,257,0.0,0.0,85,0.00,,,0.00,,2013-11-07 04:43:00,
2013-11-06 23:53:00,54.0,50.0,30.08,WSW,257,0.0,0.0,86,0.00,,,0.00,,2013-11-07 04:53:00,